Total_Precipitation_Accumulation
0.04 0.03 0.04 0.03 0.02 0.02 0.02 0.02 0.01 0.02 0.02 0.02 0.02 0.01 0.02 0.02 0.01 0.02 0.02 0.02 0.01 0.01 0.01 0.00 0.00 0.01 0.00 0.00 0.00 0.00 0.00 0.00 0.00 0.00 0.00 0.00 0.00 0.00 0.00 0.00 0.00 0.00 0.00 0.00 0.00 0.00 0.01 0.00 0.00 0.00 0.00 0.00 0.00 0.00 0.01 0.04 0.21 0.38 1.14 0.80 1.06 1.38 0.88 0.62 1.34 1.23 0.90 1.26 1.07 1.80 2.42 2.45 1.72 1.25 1.40 1.25 1.60 1.31 0.59 0.57 0.37 0.22 0.05 0.04 0.04 0.04 0.02 0.04
0.03 0.03 0.02 0.02 0.01 0.02 0.02 0.01 0.02 0.03 0.02 0.02 0.02 0.01 0.01 0.01 0.02 0.01 0.02 0.02 0.02 0.01 0.01 0.01 0.00 0.00 0.01 0.00 0.00 0.00 0.00 0.00 0.00 0.00 0.00 0.00 0.00 0.00 0.00 0.00 0.00 0.00 0.00 0.00 0.00 0.00 0.00 0.01 0.00 0.00 0.00 0.00 0.00 0.00 0.00 0.22 0.14 0.26 0.64 0.64 0.85 0.38 0.61 0.42 0.40 0.90 1.37 1.54 0.89 1.07 1.31 1.46 1.36 1.25 1.32 1.88 1.39 0.66 0.48 0.48 0.42 0.14 0.05 0.05 0.03 0.02 0.03 0.04
0.03 0.03 0.02 0.01 0.01 0.01 0.01 0.01 0.02 0.01 0.02 0.01 0.01 0.02 0.01 0.01 0.01 0.01 0.01 0.01 0.01 0.01 0.01 0.00 0.00 0.00 0.00 0.00 0.00 0.00 0.00 0.00 0.00 0.00 0.00 0.00 0.00 0.00 0.00 0.00 0.00 0.00 0.00 0.00 0.00 0.00 0.00 0.00 0.00 0.00 0.00 0.02 0.00 0.01 0.01 0.40 0.12 0.26 0.55 0.45 1.14 0.31 0.54 0.29 0.10 0.72 0.77 0.59 1.14 1.30 1.07 1.38 1.14 1.65 0.99 1.59 1.02 0.46 0.33 0.25 0.19 0.09 0.10 0.05 0.07 0.04 0.04 0.07
0.03 0.03 0.02 0.01 0.01 0.01 0.01 0.01 0.01 0.01 0.01 0.01 0.01 0.01 0.01 0.01 0.00 0.00 0.01 0.01 0.00 0.01 0.00 0.00 0.00 0.00 0.01 0.00 0.00 0.00 0.00 0.00 0.00 0.00 0.00 0.00 0.00 0.00 0.00 0.00 0.00 0.00 0.00 0.00 0.00 0.00 0.00 0.00 0.00 0.00 0.00 0.00 0.02 0.00 0.02 0.13 0.04 0.41 0.28 0.59 0.59 0.52 0.54 0.48 0.20 0.19 0.35 0.39 0.99 1.26 1.17 1.11 1.34 1.32 1.54 1.09 0.75 1.26 0.77 0.10 0.08 0.06 0.02 0.02 0.03 0.04 0.03 0.05
0.03 0.03 0.02 0.01 0.01 0.01 0.01 0.01 0.00 0.01 0.01 0.01 0.01 0.01 0.01 0.00 0.01 0.01 0.01 0.01 0.00 0.00 0.01 0.00 0.00 0.01 0.00 0.00 0.00 0.00 0.00 0.00 0.00 0.00 0.00 0.00 0.00 0.00 0.00 0.00 0.00 0.00 0.00 0.00 0.00 0.00 0.00 0.00 0.00 0.00 0.00 0.00 0.00 0.04 0.00 0.00 0.00 0.03 0.35 0.22 0.13 0.39 0.30 0.18 0.24 0.14 0.32 0.32 1.26 1.23 1.06 1.33 0.99 0.93 1.76 1.57 1.22 1.03 0.83 0.22 0.10 0.02 0.00 0.02 0.03 0.03 0.02 0.02
0.03 0.02 0.01 0.01 0.01 0.01 0.01 0.01 0.01 0.01 0.01 0.00 0.01 0.00 0.01 0.01 0.02 0.01 0.00 0.00 0.00 0.01 0.00 0.00 0.01 0.00 0.00 0.00 0.00 0.00 0.00 0.00 0.00 0.00 0.00 0.00 0.00 0.00 0.00 0.00 0.00 0.00 0.00 0.00 0.00 0.00 0.00 0.00 0.00 0.00 0.00 0.00 0.06 0.04 0.00 0.00 0.09 0.26 0.08 0.05 0.03 0.21 0.34 0.38 0.21 0.25 0.17 0.66 1.02 0.82 0.86 0.56 0.58 1.08 1.21 1.63 1.76 1.84 0.72 0.47 0.04 0.02 0.00 0.01 0.03 0.01 0.02 0.01
0.02 0.01 0.01 0.01 0.02 0.01 0.01 0.01 0.01 0.00 0.01 0.01 0.01 0.00 0.00 0.01 0.00 0.00 0.00 0.00 0.00 0.01 0.00 0.00 0.00 0.01 0.00 0.00 0.00 0.00 0.00 0.00 0.00 0.00 0.00 0.00 0.00 0.00 0.00 0.00 0.00 0.00 0.00 0.00 0.00 0.00 0.00 0.00 0.00 0.00 0.00 0.00 0.00 0.00 0.02 0.00 0.00 0.02 0.16 0.02 0.04 0.11 0.19 0.04 0.44 0.13 0.15 0.53 0.65 0.89 0.45 0.72 0.35 0.82 0.69 0.75 1.25 0.68 0.47 0.39 0.09 0.07 0.01 0.00 0.01 0.00 0.01 0.00
0.02 0.01 0.01 0.01 0.01 0.01 0.01 0.01 0.01 0.01 0.00 0.01 0.01 0.01 0.01 0.00 0.01 0.00 0.00 0.00 0.00 0.00 0.00 0.00 0.00 0.00 0.00 0.00 0.00 0.00 0.00 0.00 0.00 0.00 0.00 0.00 0.00 0.00 0.00 0.00 0.00 0.00 0.00 0.00 0.00 0.00 0.00 0.00 0.00 0.00 0.00 0.01 0.00 0.01 0.03 0.00 0.00 0.03 0.04 0.00 0.08 0.19 0.19 0.31 0.13 0.15 0.38 0.71 0.56 0.44 0.35 0.82 0.76 0.76 0.60 0.92 0.60 0.31 0.49 0.60 0.26 0.02 0.00 0.01 0.00 0.00 0.02 0.02
0.01 0.01 0.01 0.01 0.02 0.01 0.01 0.01 0.01 0.01 0.00 0.00 0.01 0.00 0.00 0.00 0.00 0.00 0.00 0.00 0.00 0.00 0.00 0.01 0.00 0.00 0.00 0.00 0.00 0.00 0.00 0.00 0.00 0.00 0.00 0.00 0.00 0.00 0.00 0.00 0.00 0.00 0.00 0.00 0.00 0.00 0.00 0.00 0.00 0.00 0.03 0.00 0.00 0.00 0.02 0.00 0.03 0.00 0.00 0.01 0.24 0.64 0.77 0.34 0.16 0.31 0.30 0.36 0.36 0.34 1.01 0.56 0.81 0.78 0.99 0.48 0.69 0.45 0.40 0.28 0.07 0.02 0.00 0.00 0.01 0.00 0.01 0.01
0.01 0.01 0.00 0.01 0.01 0.01 0.01 0.01 0.01 0.00 0.00 0.01 0.00 0.00 0.00 0.01 0.00 0.01 0.00 0.00 0.00 0.00 0.01 0.01 0.00 0.00 0.00 0.00 0.00 0.00 0.00 0.00 0.00 0.00 0.00 0.00 0.00 0.00 0.00 0.00 0.00 0.00 0.00 0.00 0.00 0.00 0.00 0.00 0.00 0.00 0.00 0.00 0.00 0.00 0.01 0.00 0.00 0.00 0.00 0.02 0.32 0.73 0.37 0.74 0.18 0.70 0.41 0.49 0.87 0.70 0.86 0.75 0.86 0.72 1.42 0.70 0.78 0.27 0.11 0.15 0.11 0.04 0.00 0.01 0.00 0.01 0.00 0.00
0.01 0.01 0.01 0.01 0.01 0.01 0.01 0.01 0.01 0.01 0.01 0.00 0.00 0.00 0.00 0.01 0.00 0.00 0.00 0.00 0.00 0.00 0.01 0.01 0.00 0.00 0.00 0.00 0.00 0.00 0.00 0.00 0.00 0.00 0.00 0.00 0.00 0.00 0.00 0.00 0.00 0.00 0.00 0.00 0.00 0.00 0.00 0.00 0.00 0.00 0.00 0.06 0.00 0.00 0.00 0.00 0.00 0.00 0.00 0.09 0.66 0.85 1.13 0.84 0.59 0.93 1.00 0.79 0.77 0.58 0.60 0.96 0.92 1.24 1.11 0.67 0.83 0.47 0.18 0.08 0.04 0.03 0.01 0.00 0.00 0.01 0.00 0.02
0.00 0.00 0.00 0.01 0.01 0.01 0.00 0.01 0.01 0.00 0.00 0.00 0.00 0.00 0.01 0.00 0.00 0.00 0.00 0.00 0.00 0.00 0.01 0.01 0.00 0.00 0.00 0.00 0.00 0.00 0.00 0.00 0.00 0.00 0.00 0.00 0.00 0.00 0.00 0.00 0.00 0.00 0.00 0.00 0.00 0.00 0.00 0.00 0.00 0.00 0.00 0.00 0.02 0.00 0.00 0.04 0.00 0.00 0.03 0.16 0.51 0.59 0.64 1.41 0.92 0.48 0.59 0.69 1.06 1.01 1.19 0.79 0.84 1.26 1.08 0.86 0.93 0.70 0.53 0.09 0.06 0.05 0.03 0.01 0.01 0.00 0.01 0.01
0.00 0.00 0.00 0.00 0.00 0.01 0.00 0.00 0.00 0.01 0.00 0.00 0.01 0.00 0.01 0.01 0.00 0.00 0.00 0.00 0.00 0.01 0.01 0.00 0.00 0.00 0.00 0.00 0.00 0.00 0.00 0.00 0.00 0.00 0.00 0.00 0.00 0.00 0.00 0.00 0.00 0.00 0.00 0.00 0.00 0.00 0.00 0.00 0.00 0.00 0.00 0.00 0.00 0.00 0.00 0.00 0.00 0.05 0.23 0.11 0.17 0.35 0.71 1.41 1.21 1.03 0.76 1.05 1.10 0.72 1.16 1.06 0.94 0.76 0.93 0.84 0.90 0.88 0.64 0.14 0.07 0.05 0.02 0.01 0.00 0.00 0.00 0.00
0.00 0.00 0.00 0.00 0.00 0.01 0.01 0.00 0.00 0.00 0.00 0.00 0.00 0.01 0.01 0.01 0.00 0.00 0.00 0.00 0.00 0.02 0.00 0.01 0.00 0.00 0.00 0.00 0.00 0.00 0.00 0.00 0.00 0.00 0.00 0.00 0.00 0.00 0.00 0.00 0.00 0.00 0.00 0.00 0.00 0.00 0.00 0.00 0.00 0.00 0.00 0.00 0.00 0.00 0.00 0.00 0.00 0.01 0.11 0.03 0.03 0.07 0.60 0.40 0.93 0.90 1.04 0.86 0.71 0.62 1.26 1.24 1.43 1.01 1.27 0.84 0.71 0.58 0.42 0.37 0.09 0.08 0.05 0.02 0.01 0.01 0.01 0.00
0.00 0.00 0.00 0.00 0.01 0.01 0.00 0.01 0.00 0.00 0.00 0.00 0.00 0.01 0.01 0.00 0.00 0.00 0.00 0.00 0.00 0.00 0.00 0.01 0.00 0.00 0.00 0.00 0.00 0.00 0.00 0.00 0.00 0.00 0.00 0.00 0.00 0.00 0.00 0.00 0.00 0.00 0.00 0.00 0.00 0.00 0.00 0.00 0.00 0.00 0.00 0.00 0.00 0.00 0.00 0.00 0.02 0.01 0.09 0.17 0.08 0.05 0.24 0.34 0.45 0.56 0.65 0.52 0.56 0.48 1.29 0.79 0.97 1.01 1.33 0.80 0.44 1.08 0.65 0.80 0.21 0.09 0.08 0.07 0.03 0.01 0.02 0.01
0.00 0.00 0.00 0.00 0.00 0.00 0.00 0.00 0.00 0.00 0.00 0.00 0.00 0.00 0.00 0.00 0.00 0.00 0.00 0.00 0.00 0.00 0.01 0.00 0.00 0.00 0.00 0.00 0.00 0.00 0.00 0.00 0.00 0.00 0.00 0.00 0.00 0.00 0.00 0.00 0.00 0.00 0.00 0.00 0.00 0.00 0.00 0.00 0.00 0.00 0.00 0.00 0.00 0.00 0.00 0.06 0.24 0.00 0.16 0.05 0.19 0.20 0.19 0.20 0.25 0.34 0.44 0.29 0.75 0.37 1.32 0.92 1.37 1.02 0.95 0.72 0.58 0.67 0.53 0.45 0.20 0.07 0.05 0.03 0.02 0.03 0.02 0.01
0.00 0.00 0.00 0.00 0.00 0.00 0.00 0.00 0.00 0.00 0.00 0.00 0.00 0.00 0.00 0.00 0.00 0.00 0.00 0.00 0.00 0.00 0.00 0.00 0.00 0.00 0.00 0.00 0.00 0.00 0.00 0.00 0.00 0.00 0.00 0.00 0.00 0.00 0.00 0.00 0.00 0.00 0.00 0.00 0.00 0.00 0.00 0.00 0.00 0.00 0.00 0.00 0.00 0.00 0.00 0.03 0.21 0.08 0.00 0.17 0.04 0.05 0.06 0.12 0.14 0.25 0.20 0.17 0.50 0.32 0.89 1.03 1.15 0.60 0.82 1.04 1.18 0.79 0.66 0.63 0.27 0.22 0.10 0.02 0.05 0.03 0.05 0.02
0.00 0.00 0.00 0.00 0.01 0.00 0.00 0.00 0.00 0.00 0.00 0.00 0.00 0.00 0.00 0.00 0.00 0.00 0.00 0.00 0.00 0.00 0.00 0.00 0.00 0.00 0.00 0.00 0.00 0.00 0.00 0.00 0.00 0.00 0.00 0.00 0.00 0.00 0.00 0.00 0.00 0.00 0.00 0.00 0.00 0.00 0.00 0.00 0.00 0.00 0.00 0.00 0.00 0.00 0.00 0.04 0.15 0.02 0.00 0.08 0.14 0.02 0.11 0.07 0.22 0.18 0.10 0.37 0.52 0.25 1.07 0.91 1.28 0.80 1.08 1.68 1.14 0.88 0.76 0.60 0.28 0.15 0.29 0.34 0.07 0.00 0.02 0.03
0.00 0.00 0.00 0.00 0.00 0.00 0.00 0.00 0.00 0.00 0.01 0.00 0.00 0.00 0.00 0.00 0.00 0.00 0.00 0.00 0.00 0.00 0.00 0.00 0.00 0.00 0.00 0.00 0.00 0.00 0.00 0.00 0.00 0.00 0.00 0.00 0.00 0.00 0.00 0.00 0.00 0.00 0.00 0.00 0.00 0.00 0.00 0.00 0.00 0.00 0.00 0.00 0.00 0.00 0.00 0.00 0.06 0.09 0.02 0.04 0.24 0.02 0.01 0.18 0.05 0.03 0.15 0.21 0.83 0.46 0.67 0.87 0.70 1.20 0.83 1.07 1.39 1.05 0.84 0.99 0.62 0.37 0.08 0.23 0.19 0.10 0.03 0.00
0.00 0.00 0.00 0.00 0.00 0.01 0.00 0.00 0.00 0.00 0.01 0.00 0.00 0.00 0.00 0.00 0.00 0.00 0.00 0.00 0.00 0.00 0.00 0.00 0.00 0.00 0.00 0.00 0.00 0.00 0.00 0.00 0.00 0.00 0.00 0.00 0.00 0.00 0.00 0.00 0.00 0.00 0.00 0.00 0.00 0.00 0.00 0.00 0.00 0.00 0.00 0.00 0.00 0.00 0.00 0.00 0.00 0.02 0.01 0.01 0.25 0.39 0.06 0.01 0.02 0.02 0.15 0.44 0.42 0.62 0.56 0.55 0.69 1.18 0.72 0.68 0.83 1.32 0.99 0.79 0.62 0.98 0.50 0.35 0.16 0.45 0.07 0.07
0.00 0.00 0.00 0.00 0.00 0.00 0.00 0.00 0.00 0.00 0.02 0.00 0.00 0.00 0.00 0.00 0.00 0.00 0.00 0.00 0.00 0.00 0.00 0.00 0.00 0.00 0.00 0.00 0.00 0.00 0.00 0.00 0.00 0.00 0.00 0.00 0.00 0.00 0.00 0.00 0.00 0.00 0.00 0.00 0.00 0.00 0.00 0.00 0.00 0.00 0.01 0.00 0.00 0.00 0.00 0.00 0.00 0.00 0.01 0.06 0.02 0.59 0.17 0.39 0.24 0.09 0.17 0.41 0.62 0.50 0.38 0.24 0.52 1.13 0.99 0.87 0.77 0.81 1.03 0.94 0.85 0.64 0.46 0.54 0.44 0.31 0.11 0.11
0.00 0.00 0.00 0.00 0.00 0.00 0.00 0.00 0.00 0.00 0.01 0.00 0.00 0.00 0.00 0.00 0.00 0.00 0.00 0.00 0.00 0.00 0.00 0.00 0.00 0.00 0.00 0.00 0.00 0.00 0.00 0.00 0.00 0.00 0.00 0.00 0.00 0.00 0.00 0.00 0.00 0.00 0.00 0.00 0.00 0.00 0.00 0.00 0.00 0.00 0.00 0.00 0.00 0.00 0.00 0.00 0.00 0.01 0.02 0.04 0.02 0.02 0.11 0.12 0.28 0.29 0.69 0.15 0.51 0.25 0.28 0.56 0.54 0.45 0.94 0.77 0.50 0.61 0.57 0.45 0.45 0.82 0.81 0.58 0.43 0.65 0.48 0.11
0.00 0.00 0.00 0.00 0.00 0.00 0.00 0.00 0.00 0.01 0.00 0.00 0.00 0.00 0.00 0.00 0.00 0.00 0.00 0.00 0.00 0.00 0.00 0.00 0.00 0.00 0.00 0.00 0.00 0.00 0.00 0.00 0.00 0.00 0.00 0.00 0.00 0.00 0.00 0.00 0.00 0.00 0.00 0.00 0.00 0.00 0.00 0.00 0.00 0.00 0.00 0.00 0.00 0.00 0.00 0.00 0.00 0.00 0.02 0.03 0.11 0.06 0.09 0.10 0.10 0.29 0.58 0.52 0.42 0.50 0.40 0.61 0.47 0.56 0.77 0.95 0.85 0.87 0.71 0.58 0.58 0.73 0.81 0.29 0.17 0.33 0.41 0.40
0.00 0.00 0.00 0.00 0.00 0.00 0.00 0.00 0.01 0.00 0.00 0.00 0.00 0.00 0.00 0.00 0.00 0.00 0.00 0.00 0.00 0.00 0.00 0.00 0.00 0.00 0.00 0.00 0.00 0.00 0.00 0.00 0.00 0.00 0.00 0.00 0.00 0.00 0.00 0.00 0.00 0.00 0.00 0.00 0.00 0.00 0.00 0.00 0.00 0.00 0.00 0.00 0.00 0.00 0.00 0.00 0.00 0.00 0.00 0.22 0.17 0.09 0.10 0.05 0.22 0.01 0.06 0.12 0.14 0.22 0.14 0.18 0.93 0.61 0.65 1.07 1.29 1.36 1.05 0.93 0.57 0.53 0.59 0.58 0.35 0.16 0.30 0.49
0.00 0.00 0.00 0.00 0.00 0.00 0.00 0.00 0.00 0.00 0.00 0.00 0.00 0.00 0.00 0.00 0.00 0.00 0.00 0.00 0.00 0.00 0.00 0.00 0.00 0.00 0.00 0.00 0.00 0.00 0.00 0.00 0.00 0.00 0.00 0.00 0.00 0.00 0.00 0.00 0.00 0.00 0.00 0.00 0.00 0.00 0.00 0.00 0.00 0.00 0.00 0.00 0.00 0.00 0.00 0.00 0.00 0.00 0.00 0.00 0.00 0.01 0.08 0.04 0.02 0.00 0.03 0.11 0.03 0.07 0.10 0.20 0.14 0.43 0.34 0.63 0.63 1.18 0.78 0.73 0.44 0.44 0.62 0.45 0.24 0.16 0.23 0.40
0.00 0.00 0.00 0.00 0.00 0.00 0.00 0.00 0.00 0.00 0.00 0.00 0.00 0.00 0.00 0.00 0.00 0.00 0.00 0.01 0.03 0.00 0.00 0.00 0.00 0.00 0.00 0.00 0.00 0.00 0.00 0.00 0.00 0.00 0.00 0.00 0.00 0.00 0.00 0.00 0.00 0.00 0.00 0.00 0.00 0.00 0.00 0.00 0.00 0.00 0.00 0.00 0.00 0.00 0.00 0.00 0.00 0.00 0.00 0.00 0.01 0.01 0.03 0.06 0.01 0.01 0.02 0.03 0.03 0.00 0.11 0.09 0.05 0.29 1.08 0.64 0.46 0.74 0.76 0.65 0.55 0.54 0.72 0.36 0.20 0.20 0.25 0.28
0.00 0.00 0.00 0.00 0.00 0.00 0.00 0.00 0.00 0.00 0.00 0.00 0.00 0.00 0.00 0.00 0.00 0.00 0.00 0.10 0.07 0.00 0.00 0.00 0.00 0.00 0.00 0.00 0.00 0.00 0.00 0.00 0.00 0.00 0.00 0.00 0.00 0.00 0.00 0.00 0.00 0.00 0.00 0.00 0.00 0.00 0.00 0.00 0.00 0.00 0.00 0.00 0.00 0.00 0.00 0.00 0.00 0.01 0.01 0.00 0.00 0.00 0.03 0.02 0.04 0.01 0.01 0.00 0.00 0.01 0.00 0.09 0.21 0.08 0.27 0.96 0.43 0.37 0.84 0.64 1.01 1.09 0.45 0.29 0.23 0.22 0.26 0.36
0.00 0.00 0.00 0.00 0.00 0.01 0.00 0.00 0.00 0.00 0.00 0.00 0.00 0.00 0.00 0.00 0.00 0.00 0.01 0.17 0.00 0.00 0.00 0.00 0.00 0.00 0.00 0.00 0.00 0.00 0.00 0.00 0.00 0.00 0.00 0.00 0.00 0.00 0.00 0.00 0.00 0.00 0.00 0.00 0.00 0.00 0.00 0.00 0.00 0.00 0.00 0.00 0.00 0.00 0.00 0.00 0.00 0.00 0.00 0.00 0.00 0.00 0.00 0.00 0.00 0.03 0.03 0.00 0.05 0.02 0.01 0.05 0.04 0.12 0.05 0.58 0.65 0.47 0.44 0.70 1.41 0.87 0.67 0.43 0.20 0.24 0.35 0.45
0.00 0.00 0.00 0.00 0.00 0.00 0.00 0.00 0.00 0.00 0.00 0.00 0.00 0.00 0.00 0.00 0.00 0.00 0.08 0.12 0.00 0.00 0.00 0.00 0.00 0.00 0.00 0.00 0.00 0.00 0.00 0.00 0.00 0.00 0.00 0.00 0.00 0.00 0.00 0.00 0.00 0.00 0.00 0.00 0.00 0.00 0.00 0.00 0.00 0.00 0.00 0.00 0.00 0.00 0.00 0.00 0.03 0.00 0.00 0.00 0.00 0.00 0.00 0.00 0.01 0.00 0.00 0.00 0.01 0.01 0.01 0.02 0.22 0.15 0.09 0.22 0.30 0.14 0.13 0.30 0.80 0.92 0.92 0.54 0.31 0.52 0.60 0.36
0.00 0.00 0.00 0.00 0.00 0.00 0.00 0.00 0.00 0.00 0.00 0.00 0.00 0.00 0.00 0.00 0.00 0.07 0.10 0.13 0.00 0.03 0.00 0.00 0.00 0.00 0.00 0.00 0.00 0.00 0.00 0.00 0.00 0.00 0.00 0.00 0.00 0.00 0.00 0.00 0.00 0.00 0.00 0.00 0.00 0.00 0.00 0.00 0.00 0.00 0.00 0.00 0.00 0.00 0.00 0.00 0.00 0.00 0.00 0.00 0.01 0.01 0.01 0.00 0.00 0.02 0.15 0.07 0.00 0.00 0.00 0.01 0.18 0.25 0.11 0.25 0.19 0.10 0.03 0.12 0.27 0.77 0.66 0.45 0.35 0.37 0.45 0.40
0.00 0.00 0.00 0.00 0.00 0.00 0.00 0.00 0.00 0.00 0.00 0.00 0.00 0.00 0.00 0.00 0.04 0.11 0.04 0.00 0.00 0.00 0.00 0.00 0.00 0.00 0.00 0.00 0.00 0.00 0.00 0.00 0.00 0.00 0.00 0.00 0.00 0.00 0.00 0.00 0.00 0.00 0.00 0.00 0.00 0.00 0.00 0.00 0.00 0.00 0.00 0.00 0.00 0.00 0.00 0.00 0.00 0.00 0.00 0.00 0.00 0.00 0.02 0.04 0.54 0.22 0.17 0.03 0.00 0.00 0.00 0.00 0.05 0.19 0.07 0.01 0.00 0.02 0.00 0.08 0.13 0.40 0.83 0.37 0.60 0.35 0.18 0.27
0.00 0.00 0.00 0.00 0.00 0.00 0.00 0.00 0.00 0.00 0.00 0.00 0.00 0.00 0.00 0.14 0.03 0.07 0.04 0.00 0.08 0.00 0.02 0.00 0.00 0.00 0.00 0.00 0.00 0.00 0.00 0.00 0.00 0.00 0.00 0.00 0.00 0.00 0.00 0.00 0.00 0.00 0.00 0.00 0.00 0.00 0.00 0.00 0.00 0.00 0.00 0.00 0.00 0.00 0.00 0.00 0.00 0.00 0.00 0.00 0.01 0.05 0.05 0.21 0.79 0.02 0.03 0.02 0.00 0.00 0.00 0.01 0.02 0.07 0.02 0.00 0.00 0.01 0.03 0.01 0.07 0.09 0.50 0.25 0.43 0.35 0.14 0.18
0.00 0.00 0.00 0.00 0.00 0.00 0.00 0.00 0.00 0.00 0.00 0.00 0.00 0.00 0.03 0.04 0.10 0.09 0.06 0.00 0.01 0.00 0.00 0.00 0.01 0.00 0.00 0.00 0.00 0.00 0.00 0.00 0.00 0.00 0.00 0.00 0.00 0.00 0.00 0.00 0.00 0.00 0.00 0.00 0.00 0.00 0.00 0.00 0.00 0.00 0.00 0.00 0.00 0.00 0.01 0.00 0.00 0.00 0.00 0.00 0.00 0.05 0.04 0.14 0.20 0.03 0.07 0.00 0.01 0.00 0.09 0.18 0.06 0.02 0.00 0.00 0.00 0.02 0.00 0.01 0.01 0.11 0.23 0.33 0.13 0.15 0.14 0.09
0.00 0.00 0.00 0.00 0.00 0.00 0.00 0.00 0.00 0.00 0.00 0.00 0.00 0.00 0.16 0.15 0.04 0.01 0.02 0.00 0.00 0.00 0.00 0.01 0.00 0.00 0.00 0.01 0.00 0.00 0.00 0.00 0.00 0.00 0.00 0.00 0.00 0.01 0.00 0.00 0.00 0.00 0.00 0.00 0.00 0.00 0.00 0.00 0.00 0.00 0.00 0.00 0.00 0.00 0.00 0.00 0.00 0.00 0.00 0.00 0.00 0.01 0.02 0.02 0.01 0.01 0.03 0.12 0.00 0.00 0.01 0.11 0.06 0.07 0.06 0.00 0.01 0.00 0.00 0.00 0.00 0.04 0.20 0.35 0.30 0.17 0.19 0.12
0.00 0.00 0.00 0.00 0.00 0.00 0.00 0.00 0.00 0.00 0.00 0.00 0.02 0.12 0.17 0.11 0.05 0.07 0.05 0.00 0.00 0.00 0.00 0.00 0.00 0.00 0.01 0.00 0.00 0.00 0.00 0.00 0.00 0.00 0.00 0.01 0.01 0.00 0.00 0.00 0.00 0.00 0.00 0.00 0.00 0.00 0.00 0.00 0.00 0.00 0.00 0.00 0.00 0.00 0.00 0.00 0.00 0.00 0.00 0.00 0.00 0.00 0.00 0.02 0.03 0.01 0.05 0.03 0.00 0.01 0.13 0.28 0.22 0.01 0.03 0.03 0.00 0.00 0.00 0.00 0.00 0.02 0.12 0.37 0.55 0.33 0.20 0.14
0.00 0.00 0.00 0.00 0.00 0.00 0.00 0.00 0.00 0.00 0.00 0.00 0.10 0.10 0.17 0.06 0.08 0.01 0.02 0.00 0.00 0.00 0.00 0.00 0.00 0.00 0.01 0.01 0.00 0.01 0.00 0.00 0.00 0.01 0.00 0.01 0.00 0.01 0.00 0.00 0.00 0.00 0.00 0.00 0.00 0.00 0.00 0.00 0.00 0.00 0.00 0.00 0.00 0.00 0.01 0.00 0.00 0.00 0.00 0.00 0.00 0.00 0.00 0.01 0.00 0.00 0.00 0.01 0.03 0.00 0.02 0.02 0.00 0.01 0.21 0.18 0.09 0.03 0.00 0.00 0.00 0.01 0.02 0.13 0.24 0.34 0.41 0.68
0.00 0.00 0.00 0.00 0.00 0.00 0.00 0.00 0.00 0.00 0.00 0.07 0.18 0.23 0.09 0.03 0.01 0.00 0.01 0.00 0.00 0.00 0.00 0.00 0.00 0.00 0.01 0.02 0.01 0.01 0.01 0.00 0.00 0.02 0.09 0.00 0.00 0.00 0.00 0.00 0.00 0.00 0.00 0.00 0.00 0.00 0.00 0.00 0.00 0.00 0.00 0.00 0.00 0.00 0.00 0.00 0.00 0.00 0.00 0.00 0.00 0.00 0.00 0.00 0.01 0.04 0.01 0.03 0.06 0.01 0.04 0.06 0.03 0.17 0.02 0.04 0.04 0.00 0.01 0.00 0.00 0.01 0.00 0.06 0.26 0.68 1.00 1.05
0.00 0.00 0.00 0.00 0.00 0.00 0.00 0.00 0.00 0.00 0.01 0.11 0.11 0.06 0.01 0.05 0.00 0.00 0.00 0.00 0.00 0.00 0.01 0.09 0.01 0.00 0.00 0.01 0.01 0.01 0.01 0.01 0.03 0.00 0.03 0.00 0.02 0.00 0.00 0.00 0.00 0.00 0.00 0.00 0.00 0.00 0.00 0.00 0.00 0.00 0.00 0.00 0.00 0.00 0.00 0.00 0.00 0.00 0.00 0.00 0.00 0.00 0.00 0.00 0.00 0.00 0.02 0.00 0.08 0.01 0.05 0.03 0.07 0.11 0.01 0.04 0.01 0.00 0.00 0.00 0.00 0.00 0.00 0.02 0.09 0.30 0.32 0.43
0.00 0.00 0.02 0.00 0.00 0.00 0.00 0.00 0.00 0.00 0.01 0.23 0.20 0.28 0.11 0.02 0.01 0.00 0.00 0.00 0.00 0.00 0.00 0.00 0.00 0.00 0.00 0.01 0.01 0.01 0.01 0.03 0.00 0.04 0.03 0.02 0.02 0.00 0.00 0.01 0.00 0.00 0.00 0.00 0.00 0.00 0.00 0.00 0.00 0.00 0.00 0.00 0.00 0.00 0.00 0.00 0.00 0.00 0.00 0.00 0.00 0.00 0.00 0.00 0.00 0.06 0.01 0.09 0.01 0.45 0.20 0.40 0.36 0.13 0.08 0.08 0.28 0.24 0.15 0.05 0.00 0.00 0.00 0.02 0.03 0.21 0.40 0.43
0.00 0.00 0.01 0.00 0.00 0.00 0.00 0.00 0.00 0.03 0.19 0.38 0.12 0.11 0.03 0.00 0.02 0.00 0.00 0.00 0.00 0.00 0.01 0.00 0.00 0.00 0.00 0.00 0.01 0.01 0.02 0.02 0.02 0.02 0.01 0.06 0.04 0.01 0.00 0.00 0.00 0.00 0.00 0.00 0.00 0.00 0.00 0.00 0.00 0.00 0.00 0.00 0.00 0.00 0.00 0.00 0.00 0.00 0.00 0.00 0.00 0.00 0.00 0.00 0.01 0.04 0.02 0.05 0.00 0.05 0.14 0.10 0.17 0.19 1.07 0.60 0.84 0.35 0.07 0.00 0.00 0.00 0.00 0.02 0.01 0.05 0.53 0.58
0.00 0.00 0.02 0.00 0.00 0.00 0.00 0.00 0.02 0.05 0.08 0.13 0.03 0.06 0.01 0.01 0.01 0.01 0.00 0.00 0.01 0.00 0.00 0.00 0.00 0.01 0.00 0.02 0.01 0.00 0.02 0.02 0.02 0.03 0.01 0.01 0.00 0.01 0.00 0.00 0.00 0.00 0.00 0.00 0.00 0.00 0.00 0.00 0.00 0.00 0.00 0.00 0.00 0.00 0.00 0.00 0.00 0.00 0.00 0.00 0.00 0.00 0.00 0.00 0.00 0.00 0.01 0.01 0.00 0.02 0.19 0.06 0.03 0.12 0.11 0.24 0.05 0.09 0.00 0.00 0.00 0.00 0.00 0.00 0.01 0.01 0.05 0.22
0.00 0.02 0.01 0.00 0.00 0.00 0.00 0.03 0.06 0.03 0.06 0.08 0.12 0.01 0.01 0.01 0.01 0.01 0.00 0.01 0.01 0.01 0.00 0.00 0.00 0.00 0.00 0.00 0.00 0.00 0.01 0.02 0.05 0.05 0.03 0.02 0.01 0.00 0.00 0.00 0.00 0.00 0.00 0.02 0.00 0.00 0.00 0.00 0.00 0.01 0.00 0.00 0.00 0.00 0.00 0.00 0.00 0.01 0.00 0.00 0.00 0.00 0.00 0.01 0.00 0.00 0.00 0.00 0.00 0.10 0.07 0.17 0.03 0.05 0.22 0.07 0.03 0.01 0.00 0.00 0.01 0.01 0.00 0.00 0.00 0.00 0.01 0.05
0.01 0.00 0.00 0.00 0.00 0.00 0.00 0.06 0.01 0.02 0.02 0.03 0.00 0.03 0.01 0.03 0.01 0.03 0.01 0.02 0.02 0.04 0.02 0.01 0.00 0.01 0.00 0.00 0.00 0.00 0.00 0.03 0.03 0.05 0.05 0.03 0.02 0.01 0.00 0.00 0.00 0.01 0.00 0.01 0.00 0.00 0.00 0.00 0.00 0.00 0.00 0.00 0.00 0.00 0.00 0.00 0.00 0.00 0.00 0.00 0.00 0.00 0.00 0.00 0.00 0.03 0.02 0.03 0.02 0.10 0.10 0.18 0.06 0.11 0.08 0.20 0.13 0.01 0.01 0.01 0.01 0.01 0.01 0.01 0.00 0.00 0.00 0.00
0.00 0.00 0.00 0.00 0.00 0.00 0.02 0.06 0.03 0.04 0.01 0.01 0.03 0.03 0.02 0.05 0.01 0.01 0.03 0.06 0.12 0.05 0.02 0.02 0.02 0.03 0.03 0.00 0.00 0.00 0.00 0.05 0.07 0.04 0.06 0.06 0.04 0.01 0.01 0.01 0.00 0.00 0.01 0.00 0.01 0.01 0.00 0.02 0.00 0.02 0.03 0.00 0.00 0.00 0.00 0.00 0.00 0.00 0.00 0.00 0.00 0.00 0.00 0.00 0.00 0.02 0.02 0.00 0.10 0.04 0.05 0.12 0.12 0.03 0.02 0.00 0.01 0.02 0.01 0.00 0.01 0.01 0.01 0.01 0.00 0.00 0.00 0.00
0.01 0.00 0.00 0.00 0.00 0.00 0.03 0.01 0.04 0.04 0.02 0.04 0.04 0.05 0.10 0.11 0.07 0.01 0.02 0.04 0.02 0.05 0.03 0.03 0.04 0.01 0.01 0.01 0.00 0.00 0.00 0.06 0.12 0.06 0.06 0.08 0.07 0.03 0.01 0.01 0.01 0.01 0.00 0.00 0.00 0.00 0.04 0.01 0.05 0.06 0.01 0.00 0.00 0.00 0.05 0.05 0.00 0.00 0.00 0.00 0.02 0.01 0.00 0.00 0.00 0.01 0.00 0.02 0.02 0.05 0.12 0.06 0.03 0.04 0.22 0.20 0.01 0.02 0.01 0.01 0.01 0.00 0.00 0.00 0.01 0.01 0.01 0.01
0.00 0.05 0.00 0.00 0.00 0.04 0.02 0.00 0.03 0.02 0.05 0.03 0.02 0.05 0.08 0.11 0.19 0.11 0.06 0.06 0.02 0.02 0.01 0.16 0.02 0.00 0.04 0.03 0.03 0.01 0.02 0.03 0.09 0.14 0.10 0.13 0.06 0.06 0.03 0.03 0.02 0.01 0.00 0.00 0.02 0.02 0.03 0.02 0.00 0.01 0.03 0.11 0.23 0.16 0.02 0.00 0.01 0.01 0.03 0.00 0.01 0.01 0.01 0.00 0.01 0.01 0.00 0.04 0.07 0.07 0.00 0.06 0.03 0.03 0.02 0.03 0.02 0.02 0.07 0.01 0.01 0.02 0.00 0.00 0.01 0.01 0.02 0.02
0.11 0.06 0.00 0.02 0.01 0.05 0.03 0.05 0.12 0.08 0.09 0.05 0.05 0.02 0.04 0.08 0.12 0.17 0.14 0.09 0.19 0.09 0.04 0.04 0.09 0.03 0.06 0.02 0.08 0.05 0.02 0.08 0.05 0.09 0.10 0.10 0.09 0.10 0.06 0.04 0.04 0.02 0.02 0.01 0.02 0.00 0.02 0.08 0.01 0.01 0.00 0.00 0.03 0.00 0.05 0.00 0.00 0.00 0.00 0.00 0.00 0.02 0.00 0.07 0.02 0.04 0.01 0.04 0.08 0.02 0.02 0.01 0.05 0.02 0.03 0.02 0.03 0.07 0.12 0.01 0.00 0.01 0.01 0.01 0.01 0.01 0.02 0.02
0.14 0.08 0.02 0.18 0.12 0.05 0.03 0.07 0.06 0.07 0.09 0.04 0.07 0.13 0.04 0.03 0.09 0.16 0.15 0.15 0.19 0.18 0.08 0.19 0.08 0.11 0.13 0.09 0.06 0.14 0.09 0.10 0.10 0.18 0.11 0.09 0.08 0.11 0.13 0.08 0.06 0.09 0.03 0.02 0.02 0.00 0.03 0.07 0.07 0.01 0.00 0.00 0.00 0.01 0.01 0.12 0.00 0.00 0.00 0.00 0.03 0.00 0.00 0.01 0.00 0.00 0.01 0.02 0.15 0.02 0.03 0.04 0.00 0.07 0.06 0.04 0.05 0.01 0.14 0.39 0.05 0.00 0.00 0.00 0.00 0.00 0.00 0.02
0.06 0.08 0.03 0.10 0.15 0.09 0.07 0.16 0.13 0.12 0.06 0.09 0.10 0.11 0.10 0.04 0.05 0.08 0.11 0.23 0.18 0.31 0.18 0.23 0.20 0.15 0.13 0.17 0.11 0.24 0.09 0.19 0.21 0.11 0.12 0.13 0.12 0.11 0.15 0.13 0.12 0.06 0.08 0.05 0.06 0.05 0.04 0.04 0.04 0.01 0.01 0.01 0.00 0.00 0.00 0.01 0.00 0.00 0.00 0.00 0.00 0.00 0.00 0.00 0.00 0.00 0.01 0.01 0.03 0.02 0.07 0.14 0.07 0.19 0.11 0.09 0.04 0.01 0.18 0.21 0.23 0.06 0.01 0.00 0.01 0.02 0.02 0.02
0.36 0.29 0.60 0.09 0.09 0.07 0.08 0.13 0.09 0.06 0.08 0.11 0.18 0.13 0.30 0.08 0.06 0.03 0.05 0.07 0.21 0.25 0.16 0.19 0.17 0.28 0.25 0.21 0.18 0.14 0.11 0.10 0.17 0.16 0.10 0.09 0.11 0.11 0.18 0.13 0.17 0.23 0.08 0.05 0.04 0.06 0.01 0.03 0.02 0.04 0.04 0.03 0.01 0.02 0.00 0.00 0.00 0.00 0.00 0.00 0.01 0.01 0.00 0.00 0.00 0.00 0.00 0.01 0.01 0.02 0.04 0.10 0.39 0.14 0.14 0.06 0.03 0.01 0.07 0.13 0.45 0.27 0.03 0.00 0.01 0.07 0.02 0.09
0.23 0.41 0.62 0.72 0.41 0.10 0.30 0.15 0.15 0.18 0.11 0.06 0.13 0.17 0.10 0.16 0.10 0.04 0.03 0.04 0.17 0.30 0.26 0.25 0.18 0.15 0.15 0.15 0.15 0.19 0.09 0.02 0.03 0.04 0.04 0.04 0.10 0.12 0.15 0.26 0.17 0.19 0.30 0.17 0.15 0.13 0.02 0.03 0.02 0.15 0.05 0.04 0.03 0.04 0.01 0.00 0.00 0.00 0.00 0.00 0.00 0.01 0.01 0.01 0.01 0.03 0.02 0.04 0.03 0.06 0.13 0.07 0.25 0.18 0.67 0.05 0.03 0.17 0.09 0.09 0.18 0.68 0.23 0.06 0.00 0.06 0.07 0.14
0.30 0.36 0.68 0.86 0.73 0.27 0.28 0.15 0.20 0.15 0.14 0.11 0.24 0.17 0.09 0.08 0.06 0.06 0.10 0.12 0.27 0.28 0.24 0.26 0.22 0.19 0.11 0.11 0.13 0.13 0.10 0.04 0.01 0.01 0.01 0.02 0.02 0.02 0.04 0.06 0.06 0.11 0.18 0.13 0.15 0.17 0.07 0.04 0.04 0.09 0.04 0.02 0.04 0.07 0.05 0.04 0.07 0.03 0.00 0.00 0.01 0.01 0.01 0.03 0.01 0.00 0.03 0.03 0.04 0.07 0.26 0.06 0.08 0.07 0.06 0.15 0.04 0.04 0.16 0.14 0.07 0.28 0.51 0.30 0.03 0.03 0.05 0.21